When you browse on this site, cookies collect data to enhance your experience and personalize the content and advertising you see.
Visit our Privacy Policy to learn more. By continuing to use the site, you agree to this use of cookies and data.
  • în România
  • Lista ţărilor
  • Pe 7 zile
  • Temperatura apei
  • Meteo pe hartă
  • Widget-uri
  • user-avatar
    Intrare

    Meteo pe oră la Peshawar

    Astăzi, 25 Mai, Luni

    Timp Temperatura Precipitaţii Vânt Presiune Umiditate
    00:00 +30°C° 0 mm 7 m/s 751 mmHg 83%
    01:00 +29°C° 0 mm 8 m/s 750 mmHg 83%
    02:00 +29°C° 0 mm 7 m/s 750 mmHg 81%
    03:00 +29°C° 0 mm 7 m/s 750 mmHg 80%
    04:00 +29°C° 0 mm 7 m/s 750 mmHg 78%
    05:00 +31°C° 0 mm 8 m/s 750 mmHg 74%
    06:00 +32°C° 0 mm 8 m/s 751 mmHg 69%
    07:00 +33°C° 0 mm 9 m/s 751 mmHg 65%
    08:00 +34°C° 0 mm 9 m/s 751 mmHg 59%
    09:00 +37°C° 0 mm 10 m/s 751 mmHg 54%
    10:00 +39°C° 0 mm 9 m/s 751 mmHg 45%
    11:00 +39°C° 0 mm 10 m/s 751 mmHg 44%
    12:00 +39°C° 0 mm 10 m/s 750 mmHg 44%
    13:00 +39°C° 0 mm 10 m/s 750 mmHg 43%
    14:00 +38°C° 0 mm 10 m/s 750 mmHg 47%
    15:00 +38°C° 0 mm 10 m/s 749 mmHg 50%
    16:00 +37°C° 0 mm 8 m/s 749 mmHg 54%
    17:00 +34°C° 0 mm 7 m/s 749 mmHg 61%
    18:00 +33°C° 0 mm 7 m/s 750 mmHg 68%
    19:00 +32°C° 0 mm 6 m/s 750 mmHg 75%
    20:00 +30°C° 0 mm 6 m/s 750 mmHg 77%
    21:00 +30°C° 0 mm 7 m/s 750 mmHg 79%
    22:00 +30°C° 0 mm 7 m/s 751 mmHg 80%
    23:00 +30°C° 0 mm 7 m/s 750 mmHg 79%

    Mâine, 26 Mai, Marţi

    Timp Temperatura Precipitaţii Vânt Presiune Umiditate
    00:00 +31°C° 0 mm 8 m/s 750 mmHg 78%
    01:00 +31°C° 0 mm 8 m/s 749 mmHg 77%
    02:00 +31°C° 0 mm 8 m/s 749 mmHg 77%
    03:00 +31°C° 0 mm 8 m/s 749 mmHg 77%
    04:00 +31°C° 0 mm 8 m/s 749 mmHg 77%
    05:00 +32°C° 0 mm 8 m/s 749 mmHg 75%
    06:00 +32°C° 0 mm 9 m/s 750 mmHg 72%
    07:00 +33°C° 0 mm 9 m/s 750 mmHg 70%
    08:00 +34°C° 0 mm 9 m/s 750 mmHg 65%
    09:00 +37°C° 0 mm 10 m/s 750 mmHg 59%
    10:00 +38°C° 0 mm 10 m/s 750 mmHg 54%
    11:00 +39°C° 0 mm 10 m/s 750 mmHg 52%
    12:00 +39°C° 0 mm 10 m/s 749 mmHg 51%
    13:00 +39°C° 0 mm 10 m/s 749 mmHg 49%
    14:00 +39°C° 0 mm 10 m/s 748 mmHg 51%
    15:00 +38°C° 0 mm 10 m/s 748 mmHg 53%
    16:00 +38°C° 0 mm 10 m/s 747 mmHg 55%
    17:00 +35°C° 0 mm 8 m/s 748 mmHg 60%
    18:00 +34°C° 0 mm 7 m/s 748 mmHg 66%
    19:00 +32°C° 0 mm 6 m/s 749 mmHg 72%
    20:00 +32°C° 0 mm 6 m/s 749 mmHg 74%
    21:00 +32°C° 0 mm 6 m/s 749 mmHg 75%
    22:00 +32°C° 0 mm 6 m/s 749 mmHg 77%
    23:00 +32°C° 0 mm 7 m/s 749 mmHg 77%

    Poimâine, 27 Mai, Miercuri

    Timp Temperatura Precipitaţii Vânt Presiune Umiditate
    00:00 +32°C° 0 mm 7 m/s 748 mmHg 77%
    01:00 +32°C° 0 mm 8 m/s 748 mmHg 77%
    02:00 +31°C° 0 mm 8 m/s 748 mmHg 78%
    03:00 +31°C° 0 mm 8 m/s 748 mmHg 79%
    04:00 +31°C° 0 mm 8 m/s 747 mmHg 80%
    05:00 +32°C° 0 mm 8 m/s 748 mmHg 74%
    06:00 +33°C° 0 mm 9 m/s 748 mmHg 68%
    07:00 +34°C° 0 mm 9 m/s 749 mmHg 62%
    08:00 +37°C° 0 mm 10 m/s 749 mmHg 59%
    09:00 +38°C° 0 mm 11 m/s 748 mmHg 56%
    10:00 +39°C° 0 mm 11 m/s 748 mmHg 53%
    11:00 +41°C° 0 mm 11 m/s 748 mmHg 48%
    12:00 +42°C° 0 mm 11 m/s 747 mmHg 44%
    13:00 +42°C° 0 mm 10 m/s 747 mmHg 40%
    14:00 +40°C° 0 mm 10 m/s 747 mmHg 42%
    15:00 +39°C° 0 mm 11 m/s 746 mmHg 44%
    16:00 +39°C° 0 mm 11 m/s 746 mmHg 46%
    17:00 +37°C° 0 mm 9 m/s 746 mmHg 52%
    18:00 +35°C° 0 mm 8 m/s 747 mmHg 58%
    19:00 +33°C° 0 mm 7 m/s 747 mmHg 64%
    20:00 +33°C° 0 mm 7 m/s 747 mmHg 66%
    21:00 +33°C° 0 mm 8 m/s 747 mmHg 68%
    22:00 +33°C° 0 mm 9 m/s 747 mmHg 71%
    23:00 +33°C° 0 mm 9 m/s 747 mmHg 70%

    28 Mai, Joi

    Timp Temperatura Precipitaţii Vânt Presiune Umiditate
    00:00 +32°C° 0 mm 9 m/s 747 mmHg 70%
    01:00 +32°C° 0 mm 9 m/s 746 mmHg 69%
    02:00 +32°C° 0 mm 10 m/s 746 mmHg 71%
    03:00 +32°C° 0 mm 10 m/s 746 mmHg 72%
    04:00 +32°C° 0 mm 10 m/s 745 mmHg 73%
    05:00 +33°C° 0 mm 11 m/s 746 mmHg 69%
    06:00 +34°C° 0 mm 12 m/s 746 mmHg 65%
    07:00 +36°C° 0 mm 12 m/s 747 mmHg 61%
    08:00 +37°C° 0 mm 13 m/s 747 mmHg 54%
    09:00 +38°C° 0 mm 13 m/s 746 mmHg 47%
    10:00 +41°C° 0 mm 14 m/s 746 mmHg 40%
    11:00 +41°C° 0 mm 14 m/s 746 mmHg 37%
    12:00 +42°C° 0 mm 14 m/s 745 mmHg 34%
    13:00 +43°C° 0 mm 14 m/s 744 mmHg 31%
    14:00 +42°C° 0 mm 14 m/s 744 mmHg 35%
    15:00 +41°C° 0 mm 14 m/s 743 mmHg 39%
    16:00 +40°C° 0 mm 14 m/s 743 mmHg 43%
    17:00 +37°C° 0 mm 13 m/s 743 mmHg 50%
    18:00 +36°C° 0 mm 12 m/s 744 mmHg 58%
    19:00 +33°C° 0 mm 11 m/s 744 mmHg 65%
    20:00 +33°C° 0 mm 11 m/s 745 mmHg 68%
    21:00 +33°C° 0 mm 11 m/s 745 mmHg 70%
    22:00 +33°C° 0 mm 11 m/s 745 mmHg 73%
    23:00 +32°C° 0 mm 11 m/s 745 mmHg 73%

    29 Mai, Vineri

    Timp Temperatura Precipitaţii Vânt Presiune Umiditate
    00:00 +32°C° 0 mm 11 m/s 745 mmHg 74%
    01:00 +32°C° 0 mm 11 m/s 744 mmHg 74%
    02:00 +32°C° 0 mm 11 m/s 744 mmHg 76%
    03:00 +32°C° 0 mm 11 m/s 744 mmHg 78%
    04:00 +31°C° 0 mm 10 m/s 744 mmHg 80%
    05:00 +32°C° 0 mm 11 m/s 744 mmHg 77%
    06:00 +33°C° 0 mm 11 m/s 745 mmHg 74%
    07:00 +34°C° 0 mm 11 m/s 745 mmHg 72%
    08:00 +36°C° 0 mm 11 m/s 745 mmHg 64%
    09:00 +37°C° 0 mm 11 m/s 745 mmHg 57%
    10:00 +39°C° 0 mm 11 m/s 745 mmHg 50%
    11:00 +39°C° 0 mm 11 m/s 744 mmHg 46%
    12:00 +41°C° 0 mm 11 m/s 744 mmHg 42%
    13:00 +42°C° 0 mm 11 m/s 743 mmHg 39%
    14:00 +41°C° 0 mm 11 m/s 743 mmHg 40%
    15:00 +39°C° 0 mm 11 m/s 743 mmHg 42%
    16:00 +39°C° 0 mm 11 m/s 743 mmHg 43%
    17:00 +37°C° 0 mm 10 m/s 743 mmHg 52%
    18:00 +36°C° 0 mm 10 m/s 743 mmHg 60%
    19:00 +33°C° 0 mm 9 m/s 744 mmHg 68%
    20:00 +33°C° 0 mm 9 m/s 744 mmHg 71%
    21:00 +33°C° 0 mm 8 m/s 745 mmHg 73%
    22:00 +32°C° 0 mm 8 m/s 745 mmHg 75%
    23:00 +32°C° 0 mm 8 m/s 745 mmHg 76%

    30 Mai, Sâmbătă

    Timp Temperatura Precipitaţii Vânt Presiune Umiditate
    00:00 +32°C° 0 mm 8 m/s 745 mmHg 77%
    01:00 +32°C° 0 mm 8 m/s 744 mmHg 78%
    02:00 +32°C° 0 mm 8 m/s 744 mmHg 79%
    03:00 +32°C° 0 mm 7 m/s 745 mmHg 80%
    04:00 +30°C° 0 mm 7 m/s 745 mmHg 82%
    05:00 +32°C° 0 mm 8 m/s 745 mmHg 79%
    06:00 +33°C° 0 mm 8 m/s 745 mmHg 77%
    07:00 +33°C° 0 mm 8 m/s 746 mmHg 74%
    08:00 +35°C° 0 mm 8 m/s 746 mmHg 66%
    09:00 +38°C° 0 mm 8 m/s 746 mmHg 58%
    10:00 +39°C° 0 mm 9 m/s 747 mmHg 50%
    11:00 +40°C° 0 mm 8 m/s 746 mmHg 48%
    12:00 +40°C° 0 mm 8 m/s 746 mmHg 45%
    13:00 +41°C° 0 mm 8 m/s 746 mmHg 43%
    14:00 +40°C° 0 mm 9 m/s 746 mmHg 48%
    15:00 +38°C° 0 mm 9 m/s 745 mmHg 54%
    16:00 +37°C° 0 mm 9 m/s 745 mmHg 60%
    17:00 +35°C° 0 mm 8 m/s 746 mmHg 68%
    18:00 +34°C° 0 mm 7 m/s 746 mmHg 76%
    19:00 +32°C° 0 mm 6 m/s 747 mmHg 85%
    20:00 +32°C° 0 mm 5 m/s 748 mmHg 85%
    21:00 +32°C° 0 mm 4 m/s 748 mmHg 86%
    22:00 +30°C° 0 mm 3 m/s 749 mmHg 87%
    23:00 +30°C° 0 mm 3 m/s 749 mmHg 87%
    Arată mai mult